DW7214 Weather Reports


time (UTC)temp
F
wind
direction
speed
knots
gust
knots
rain 1hr
in
rain 24hr
in
rain mn
in
humidity
%
barometer
mb
20260904210015 58 190 0.0 3.5 0.04 0.46 0.25 87 1013.9
20260904204513 60 143 0.9 5.2 0.04 0.47 0.25 84 1013.9
20260904203006 61 84 0.9 7.8 0.01 0.44 0.22 79 1013.7
20260904201518 63 33 0.0 5.2 0.00 0.43 0.21 74 1013.7
20260904200012 63 11 0.9 6.1 0.00 0.43 0.21 75 1013.6
20260904194520 62 329 1.7 4.3 0.00 0.46 0.21 81 1013.7
20260904193033 62 341 1.7 4.3 0.00 0.52 0.21 82 1013.7
20260904191511 61 265 1.7 6.1 0.00 0.56 0.21 82 1013.8
20260904190016 60 302 0.9 3.5 0.00 0.62 0.21 85 1013.9
20260904184517 59 283 0.9 3.5 0.02 0.64 0.21 86 1013.8
20260904183016 59 279 0.9 2.6 0.02 0.64 0.21 85 1013.7
20260904181515 59 261 0.0 4.3 0.02 0.64 0.21 91 1013.6
20260904180012 58 221 1.7 3.5 0.02 0.64 0.21 1013.5
20260904174520 58 232 0.0 2.6 0.00 0.62 0.19 1013.6
20260904173026 58 283 0.0 0.0 0.00 0.62 0.19 1013.5
20260904171524 58 264 0.0 2.6 0.00 0.62 0.19 87 1013.5
20260904170021 58 341 0.0 1.7 0.00 0.62 0.19 89 1013.4
20260904164514 57 271 0.9 3.5 0.00 0.62 0.19 89 1013.1
20260904163023 57 342 1.7 3.5 0.00 0.62 0.19 90 1013.1
20260904161520 57 267 0.9 2.6 0.00 0.63 0.19 92 1013.0
20260904160022 55 277 0.0 0.0 0.00 0.66 0.19 94 1013.0
20260904154512 55 273 0.0 0.9 0.02 0.67 0.19 95 1013.0
20260904153023 54 251 0.0 0.0 0.03 0.68 0.19 95 1013.0
20260904151537 54 236 0.0 0.0 0.04 0.73 0.19 95 1012.9
20260904150033 54 250 0.0 0.0 0.04 0.76 0.19 95 1012.7
20260904144526 54 221 0.0 1.7 0.02 0.76 0.17 95 1012.5
20260904143017 53 226 0.0 0.0 0.04 0.79 0.16 95 1012.4
20260904141526 53 226 0.0 1.7 0.03 0.79 0.15 95 1012.3
20260904140026 53 237 0.0 2.6 0.03 0.79 0.15 95 1012.1
20260904134526 53 225 0.0 1.7 0.03 0.80 0.15 95 1011.9
20260904133025 53 232 0.9 2.6 0.00 0.77 0.12 95 1011.8
20260904131524 53 212 0.0 2.6 0.00 0.78 0.12 95 1011.8
20260904130006 53 220 0.0 1.7 0.00 0.80 0.12 95 1011.6
20260904124510 53 229 1.7 2.6 0.00 0.81 0.12 95 1011.5
20260904123014 53 242 0.0 0.0 0.01 0.83 0.12 95 1011.5
20260904121527 53 241 0.0 1.7 0.01 0.86 0.12 95 1011.5
20260904120037 53 244 0.0 0.9 0.02 0.95 0.12 95 1011.4
20260904114507 53 276 0.0 2.6 0.04 0.97 0.12 95 1011.3
20260904113028 53 241 0.0 0.0 0.05 0.98 0.11 96 1011.2
20260904111524 53 275 0.0 0.0 0.06 0.99 0.11 96 1011.1
20260904110027 53 239 0.0 0.0 0.06 1.00 0.10 96 1011.2
20260904104528 53 239 0.0 0.0 0.05 0.98 0.08 95 1011.1
20260904103008 53 239 0.0 0.0 0.05 0.96 0.06 95 1011.2
20260904101516 53 239 0.0 0.0 0.05 0.95 0.05 95 1011.0
20260904100021 53 246 0.0 2.6 0.04 0.94 0.04 95 1010.8
20260904094526 53 244 0.0 1.7 0.03 0.93 0.03 95 1010.9
20260904093008 53 248 0.0 1.7 0.01 0.91 0.01 95 1010.7
20260904091510 53 242 0.0 1.7 0.00 0.90 0.00 95 1010.6
20260904090019 53 208 0.0 2.6 0.00 0.90 0.00 95 1010.7
20260904084526 52 242 0.9 1.7 0.00 0.90 0.00 95 1010.6
20260904083032 53 238 0.0 0.0 0.00 0.90 0.00 94 1010.7
20260904081514 53 234 0.0 2.6 0.00 0.90 0.00 95 1010.8
20260904080024 53 234 0.9 2.6 0.00 0.90 0.00 95 1010.7
20260904074530 54 230 0.0 0.0 0.00 0.90 0.00 95 1010.8
20260904073034 54 242 0.0 0.0 0.00 0.90 0.00 95 1010.8
20260904071530 54 232 0.0 0.0 0.00 0.90 0.00 95 1010.8
20260904070016 54 234 0.0 0.0 0.00 0.90 0.00 95 1010.7
20260904064520 54 232 0.0 0.0 0.00 0.90 0.90 95 1010.6
20260904063028 54 226 0.0 0.0 0.00 0.90 0.90 95 1010.6
20260904061529 54 233 0.0 0.0 0.00 0.90 0.90 95 1010.7
20260904060031 55 231 0.0 0.9 0.00 0.90 0.90 95 1010.7
20260904054518 55 234 0.0 1.7 0.00 0.90 0.90 95 1010.8
20260904053023 55 227 0.9 1.7 0.00 0.90 0.90 95 1010.8
20260904051532 55 234 0.0 1.7 0.00 0.90 0.90 95 1010.9
20260904050037 55 236 0.0 1.7 0.00 0.90 0.90 94 1010.9
20260904044541 55 229 0.0 0.0 0.00 0.90 0.90 94 1010.9
20260904043018 55 270 0.0 0.0 0.00 0.90 0.90 94 1010.9
20260904041506 55 239 0.0 0.0 0.00 0.90 0.90 94 1010.8
20260904040008 55 238 0.0 0.0 0.01 0.90 0.90 94 1010.8
20260904034511 55 238 0.0 0.0 0.01 0.90 0.90 93 1010.7
20260904033020 55 238 0.0 0.0 0.04 0.90 0.90 93 1010.5
20260904031504 55 9 0.0 0.0 0.07 0.90 0.90 92 1010.4
20260904030005 56 9 0.0 0.0 0.08 0.89 0.89 91 1010.3
20260904024510 56 9 0.0 1.7 0.11 0.89 0.89 90 1010.2
20260904023013 57 40 0.0 0.0 0.09 0.86 0.86 91 1010.2
20260904021518 57 40 0.0 0.0 0.06 0.83 0.83 91 1010.1
20260904020004 57 40 0.0 0.0 0.04 0.81 0.81 91 1010.1
20260904014506 57 40 0.0 0.0 0.02 0.78 0.78 89 1010.0
20260904013012 58 40 0.0 1.7 0.02 0.77 0.77 90 1010.0
20260904011516 58 51 0.9 3.5 0.02 0.77 0.77 89 1009.9
20260904010024 58 37 0.9 3.5 0.03 0.77 0.77 89 1010.1
20260904004505 58 280 0.0 0.0 0.03 0.76 0.76 90 1010.0
20260904003008 58 280 0.0 0.0 0.02 0.75 0.75 89 1010.0
20260904001515 58 90 0.0 0.0 0.02 0.75 0.75 89 1010.1
20260904000020 58 121 0.0 0.0 0.01 0.74 0.74 86 1010.3
20260903234528 58 194 0.0 1.7 0.00 0.73 0.73 85 1010.3
20260903233008 58 180 0.0 1.7 0.00 0.73 0.73 86 1010.2
20260903231511 58 57 0.9 2.6 0.00 0.73 0.73 84 1010.3
20260903230022 58 36 0.0 2.6 0.01 0.74 0.73 87 1010.3
20260903224523 57 108 0.0 2.6 0.01 0.74 0.73 88 1010.4
20260903223005 56 34 0.0 2.6 0.03 0.74 0.73 89 1010.6
20260903221508 57 37 0.9 2.6 0.04 0.74 0.73 90 1010.7
20260903220022 57 65 0.0 2.6 0.03 0.74 0.72 90 1010.7
20260903214525 57 118 0.9 4.3 0.04 0.74 0.72 88 1010.7
20260903213030 57 87 0.9 3.5 0.02 0.81 0.70 88 1010.5
20260903211509 58 153 0.0 2.6 0.01 0.83 0.69 89 1010.6